| time (UTC) | temp F | wind direction | speed knots | gust knots | rain 1hr in | rain 24hr in | rain mn in | humidity % | barometer mb |
| 20260502152310 | 49 | 12 | 1.7 | 2.6 | 0.00 | 0.00 | 0.00 | 51 | 1015.6 |
| 20260502151808 | 49 | 17 | 0.0 | 0.0 | 0.00 | 0.00 | 0.00 | 48 | 1015.6 |
| 20260502151304 | 48 | 265 | 1.7 | 2.6 | 0.00 | 0.00 | 0.00 | 53 | 1015.3 |
| 20260502150803 | 47 | 16 | 0.0 | 0.0 | 0.00 | 0.00 | 0.00 | 55 | 1015.5 |
| 20260502150259 | 48 | 14 | 1.7 | 1.7 | 0.00 | 0.00 | 0.00 | 51 | 1015.6 |
| 20260502130647 | 44 | 356 | 1.7 | 1.7 | 0.00 | 0.00 | 0.00 | 76 | 1015.2 |
| 20260502130145 | 43 | 15 | 0.0 | 0.0 | 0.00 | 0.00 | 0.00 | 79 | 1015.5 |
| 20260502123630 | 41 | 46 | 0.0 | 0.0 | 0.00 | 0.00 | 0.00 | 90 | 1015.3 |
| 20260502123127 | 40 | 46 | 0.0 | 0.0 | 0.00 | 0.00 | 0.00 | 92 | 1015.1 |
| 20260502122624 | 39 | 47 | 0.0 | 0.0 | 0.00 | 0.00 | 0.00 | 92 | 1015.0 |
| 20260502122120 | 39 | 37 | 0.0 | 0.0 | 0.00 | 0.00 | 0.00 | 94 | 1015.3 |
| 20260502121618 | 38 | 37 | 0.0 | 0.0 | 0.00 | 0.00 | 0.00 | 94 | 1015.3 |
| 20260502121115 | 38 | 37 | 0.0 | 0.0 | 0.00 | 0.00 | 0.00 | 94 | 1015.4 |
| 20260502120611 | 38 | 35 | 0.0 | 0.0 | 0.00 | 0.00 | 0.00 | 95 | 1015.4 |
| 20260502120109 | 37 | 35 | 0.0 | 0.0 | 0.00 | 0.00 | 0.00 | 95 | 1015.2 |
| 20260502115607 | 37 | 35 | 0.0 | 0.0 | 0.00 | 0.00 | 0.00 | 95 | 1015.4 |
| 20260502115102 | 37 | 35 | 0.0 | 0.0 | 0.00 | 0.00 | 0.00 | 95 | 1015.3 |
| 20260502114559 | 36 | 36 | 0.0 | 0.0 | 0.00 | 0.00 | 0.00 | 95 | 1015.5 |
| 20260502114055 | 36 | 36 | 0.0 | 0.0 | 0.00 | 0.00 | 0.00 | 95 | 1015.2 |
| 20260502113553 | 36 | 36 | 0.0 | 0.0 | 0.00 | 0.00 | 0.00 | 95 | 1015.2 |
| 20260502113052 | 36 | 34 | 0.0 | 0.0 | 0.00 | 0.00 | 0.00 | 95 | 1015.1 |
| 20260502112549 | 35 | 34 | 0.0 | 0.0 | 0.00 | 0.00 | 0.00 | 95 | 1015.2 |
| 20260502112047 | 35 | 34 | 0.0 | 0.0 | 0.00 | 0.00 | 0.00 | 95 | 1014.8 |
| 20260502111544 | 35 | 34 | 0.0 | 0.0 | 0.00 | 0.00 | 0.00 | 95 | 1015.1 |
| 20260502111041 | 35 | 34 | 0.0 | 0.0 | 0.00 | 0.00 | 0.00 | 95 | 1015.1 |
| 20260502110538 | 35 | 34 | 0.0 | 0.0 | 0.00 | 0.00 | 0.00 | 95 | 1015.1 |
| 20260502110036 | 35 | 33 | 0.0 | 0.0 | 0.00 | 0.00 | 0.00 | 95 | 1015.1 |
| 20260502105533 | 35 | 32 | 0.0 | 0.0 | 0.00 | 0.00 | 0.00 | 95 | 1014.9 |
| 20260502105031 | 35 | 32 | 0.0 | 0.0 | 0.00 | 0.00 | 0.00 | 95 | 1015.1 |
| 20260502104527 | 35 | 32 | 0.0 | 0.0 | 0.00 | 0.00 | 0.00 | 94 | 1015.1 |
| 20260502104025 | 35 | 33 | 0.0 | 0.0 | 0.00 | 0.00 | 0.00 | 94 | 1014.9 |
| 20260502103523 | 35 | 32 | 0.0 | 0.0 | 0.00 | 0.00 | 0.00 | 94 | 1015.2 |
| 20260502103021 | 35 | 29 | 0.0 | 0.0 | 0.00 | 0.00 | 0.00 | 94 | 1015.2 |
| 20260502102516 | 35 | 29 | 0.0 | 0.0 | 0.00 | 0.00 | 0.00 | 94 | 1015.1 |
| 20260502102014 | 35 | 29 | 0.0 | 0.0 | 0.00 | 0.00 | 0.00 | 94 | 1015.3 |
| 20260502101512 | 35 | 30 | 0.0 | 0.0 | 0.00 | 0.00 | 0.00 | 94 | 1015.2 |
| 20260502101010 | 35 | 30 | 0.0 | 0.0 | 0.00 | 0.00 | 0.00 | 94 | 1015.3 |
| 20260502100508 | 35 | 30 | 0.0 | 0.0 | 0.00 | 0.00 | 0.00 | 94 | 1015.2 |
| 20260502091442 | 35 | 29 | 0.0 | 0.0 | 0.00 | 0.00 | 0.00 | 93 | 1015.4 |
| 20260502090939 | 35 | 29 | 0.0 | 0.0 | 0.00 | 0.00 | 0.00 | 92 | 1015.3 |
| 20260502090436 | 36 | 29 | 0.0 | 0.0 | 0.00 | 0.00 | 0.00 | 92 | 1015.4 |
| 20260502071331 | 39 | 28 | 0.0 | 0.0 | 0.00 | 0.00 | 0.00 | 85 | 1015.2 |
| 20260502070829 | 39 | 28 | 0.0 | 0.0 | 0.00 | 0.00 | 0.00 | 85 | 1015.1 |
| 20260502070326 | 39 | 28 | 0.0 | 0.0 | 0.00 | 0.00 | 0.00 | 84 | 1015.2 |
| 20260502065825 | 39 | 28 | 0.0 | 0.0 | 0.00 | 0.00 | 0.00 | 84 | 1015.3 |
| 20260502065323 | 39 | 28 | 0.0 | 0.0 | 0.00 | 0.00 | 0.00 | 83 | 1015.1 |
| 20260502064821 | 39 | 28 | 0.0 | 0.0 | 0.00 | 0.00 | 0.00 | 82 | 1015.2 |
| 20260502064319 | 39 | 29 | 0.0 | 0.0 | 0.00 | 0.00 | 0.00 | 82 | 1015.1 |
| 20260502063815 | 39 | 29 | 0.0 | 0.0 | 0.00 | 0.00 | 0.00 | 81 | 1015.1 |
| 20260502063313 | 40 | 29 | 0.0 | 0.0 | 0.00 | 0.00 | 0.00 | 80 | 1015.3 |
| 20260502062810 | 40 | 29 | 0.0 | 0.0 | 0.00 | 0.00 | 0.00 | 80 | 1015.2 |
| 20260502062308 | 40 | 25 | 0.0 | 0.0 | 0.00 | 0.00 | 0.00 | 79 | 1015.2 |
| 20260502061806 | 40 | 25 | 0.0 | 0.0 | 0.00 | 0.00 | 0.00 | 78 | 1015.3 |
| 20260502061304 | 41 | 24 | 0.0 | 0.0 | 0.00 | 0.00 | 0.00 | 77 | 1015.4 |
| 20260502060759 | 41 | 24 | 0.0 | 0.0 | 0.00 | 0.00 | 0.00 | 77 | 1015.3 |
| 20260502060254 | 41 | 16 | 0.0 | 0.0 | 0.00 | 0.00 | 0.00 | 76 | 1015.2 |
| 20260502055753 | 41 | 15 | 0.0 | 0.0 | 0.00 | 0.00 | 0.00 | 76 | 1015.3 |
| 20260502055250 | 41 | 7 | 0.0 | 0.0 | 0.00 | 0.00 | 0.00 | 76 | 1015.6 |
| 20260502054749 | 41 | 11 | 0.0 | 0.0 | 0.00 | 0.00 | 0.00 | 76 | 1015.4 |
| 20260502054246 | 41 | 15 | 0.0 | 0.0 | 0.00 | 0.00 | 0.00 | 77 | 1015.4 |
| 20260502053744 | 42 | 19 | 0.0 | 0.0 | 0.00 | 0.00 | 0.00 | 76 | 1015.5 |
| 20260502053241 | 42 | 19 | 0.0 | 0.0 | 0.00 | 0.00 | 0.00 | 75 | 1015.3 |
| 20260502052739 | 42 | 18 | 0.0 | 0.0 | 0.00 | 0.00 | 0.00 | 75 | 1015.2 |
| 20260502052237 | 43 | 19 | 0.0 | 0.0 | 0.00 | 0.00 | 0.00 | 75 | 1015.5 |
| 20260502051734 | 43 | 18 | 0.0 | 0.0 | 0.00 | 0.00 | 0.00 | 74 | 1015.5 |
| 20260502051233 | 43 | 12 | 0.0 | 0.0 | 0.00 | 0.00 | 0.00 | 74 | 1015.5 |
| 20260502050729 | 44 | 12 | 0.0 | 0.0 | 0.00 | 0.00 | 0.00 | 74 | 1015.6 |
| 20260502050225 | 44 | 17 | 0.0 | 0.0 | 0.00 | 0.00 | 0.00 | 74 | 1015.4 |
| 20260502045722 | 44 | 20 | 0.9 | 0.9 | 0.00 | 0.00 | 0.00 | 74 | 1015.5 |
| 20260502045219 | 44 | 16 | 0.0 | 0.0 | 0.00 | 0.00 | 0.00 | 74 | 1015.8 |
| 20260502044716 | 44 | 22 | 0.0 | 0.0 | 0.00 | 0.00 | 0.00 | 74 | 1015.6 |
| 20260502044212 | 44 | 42 | 0.0 | 0.0 | 0.00 | 0.00 | 0.00 | 75 | 1015.5 |
| 20260502043710 | 45 | 15 | 0.0 | 0.0 | 0.00 | 0.00 | 0.00 | 75 | 1015.6 |
| 20260502043207 | 45 | 50 | 0.0 | 0.0 | 0.00 | 0.00 | 0.00 | 75 | 1015.7 |
| 20260502042706 | 45 | 8 | 0.0 | 0.0 | 0.00 | 0.00 | 0.00 | 74 | 1015.8 |
| 20260502042204 | 45 | 15 | 0.0 | 0.0 | 0.00 | 0.00 | 0.00 | 74 | 1015.6 |
| 20260502041701 | 45 | 12 | 0.9 | 0.9 | 0.00 | 0.00 | 0.00 | 74 | 1015.6 |
| 20260502041158 | 45 | 15 | 0.0 | 0.0 | 0.00 | 0.00 | 0.00 | 73 | 1015.6 |
| 20260502040655 | 45 | 16 | 0.0 | 0.0 | 0.00 | 0.00 | 0.00 | 73 | 1015.5 |
| 20260502040152 | 45 | 48 | 0.0 | 0.0 | 0.00 | 0.00 | 0.00 | 72 | 1015.5 |
| 20260502035648 | 46 | 6 | 0.0 | 0.0 | 0.00 | 0.00 | 0.00 | 72 | 1015.6 |
| 20260502035145 | 46 | 21 | 0.9 | 0.9 | 0.00 | 0.00 | 0.00 | 71 | 1015.5 |
| 20260502034643 | 46 | 55 | 0.0 | 0.0 | 0.00 | 0.00 | 0.00 | 71 | 1015.5 |
| 20260502034141 | 46 | 1 | 0.9 | 1.7 | 0.00 | 0.00 | 0.00 | 71 | 1015.8 |
| 20260502033639 | 46 | 334 | 0.0 | 0.0 | 0.00 | 0.00 | 0.00 | 71 | 1015.5 |
| 20260502033137 | 46 | 333 | 0.0 | 1.7 | 0.00 | 0.00 | 0.00 | 72 | 1015.7 |
| 20260502032632 | 46 | 4 | 0.9 | 0.9 | 0.00 | 0.00 | 0.00 | 72 | 1015.5 |
| 20260502032129 | 47 | 2 | 0.9 | 1.7 | 0.00 | 0.00 | 0.00 | 72 | 1015.4 |
| 20260502031627 | 47 | 35 | 0.0 | 0.0 | 0.00 | 0.00 | 0.00 | 72 | 1015.7 |
| 20260502031124 | 47 | 13 | 0.9 | 0.9 | 0.00 | 0.00 | 0.00 | 72 | 1015.6 |
| 20260502030623 | 47 | 4 | 0.9 | 0.9 | 0.00 | 0.00 | 0.00 | 72 | 1015.4 |
| 20260502030121 | 47 | 9 | 0.9 | 0.9 | 0.00 | 0.00 | 0.00 | 71 | 1015.4 |
| 20260502025617 | 47 | 355 | 0.0 | 0.0 | 0.00 | 0.00 | 0.00 | 73 | 1015.4 |
| 20260502025116 | 47 | 131 | 1.7 | 2.6 | 0.00 | 0.00 | 0.00 | 73 | 1015.1 |
| 20260502024613 | 47 | 24 | 0.0 | 0.0 | 0.00 | 0.00 | 0.00 | 73 | 1015.2 |
| 20260502024111 | 47 | 338 | 1.7 | 2.6 | 0.00 | 0.00 | 0.00 | 72 | 1015.4 |
| 20260502023609 | 48 | 39 | 1.7 | 1.7 | 0.00 | 0.00 | 0.00 | 73 | 1015.2 |
| 20260502023106 | 48 | 15 | 0.0 | 0.0 | 0.00 | 0.00 | 0.00 | 73 | 1015.7 |
| 20260502022602 | 48 | 19 | 0.0 | 0.0 | 0.00 | 0.00 | 0.00 | 73 | 1015.3 |
| 20260502022100 | 48 | 49 | 0.0 | 0.0 | 0.00 | 0.00 | 0.00 | 72 | 1015.3 |
| 20260502021557 | 48 | 20 | 0.0 | 0.0 | 0.00 | 0.00 | 0.00 | 71 | 1015.2 |
| 20260502021054 | 48 | 20 | 0.0 | 0.0 | 0.00 | 0.00 | 0.00 | 72 | 1015.1 |
| 20260502020551 | 48 | 23 | 0.0 | 0.0 | 0.00 | 0.00 | 0.00 | 71 | 1014.9 |
| 20260502020048 | 48 | 16 | 0.0 | 0.0 | 0.00 | 0.00 | 0.00 | 71 | 1014.8 |
| 20260502015546 | 48 | 16 | 0.0 | 0.0 | 0.00 | 0.00 | 0.00 | 71 | 1014.9 |
| 20260502015042 | 48 | 352 | 2.6 | 3.5 | 0.00 | 0.00 | 0.00 | 70 | 1014.9 |
| 20260502014539 | 48 | 1 | 0.0 | 0.0 | 0.00 | 0.00 | 0.00 | 70 | 1014.7 |
| 20260502014036 | 48 | 8 | 0.0 | 0.0 | 0.00 | 0.00 | 0.00 | 70 | 1014.6 |
| 20260502013532 | 48 | 32 | 0.0 | 0.0 | 0.00 | 0.00 | 0.00 | 70 | 1014.7 |
| 20260502013028 | 48 | 355 | 0.9 | 1.7 | 0.00 | 0.00 | 0.00 | 70 | 1014.7 |
| 20260502012526 | 48 | 1 | 0.0 | 0.0 | 0.00 | 0.00 | 0.00 | 69 | 1014.6 |
| 20260502012023 | 48 | 24 | 0.0 | 0.0 | 0.00 | 0.00 | 0.00 | 68 | 1014.4 |
| 20260502011520 | 48 | 14 | 0.0 | 0.9 | 0.00 | 0.00 | 0.00 | 68 | 1014.7 |
| 20260502011016 | 48 | 17 | 0.0 | 0.0 | 0.00 | 0.00 | 0.00 | 68 | 1014.8 |
| 20260502010514 | 49 | 26 | 0.0 | 0.0 | 0.00 | 0.00 | 0.00 | 68 | 1014.6 |
| 20260502010010 | 49 | 27 | 0.0 | 0.0 | 0.00 | 0.00 | 0.00 | 67 | 1014.6 |
| 20260502005508 | 49 | 11 | 0.0 | 0.9 | 0.00 | 0.00 | 0.00 | 69 | 1013.9 |
| 20260502005005 | 49 | 3 | 0.0 | 0.0 | 0.00 | 0.00 | 0.00 | 68 | 1014.0 |
| 20260502004500 | 49 | 12 | 0.0 | 0.0 | 0.00 | 0.00 | 0.00 | 69 | 1014.2 |
| 20260502003958 | 49 | 358 | 0.9 | 1.7 | 0.00 | 0.00 | 0.00 | 69 | 1014.0 |
| 20260502003455 | 50 | 359 | 0.0 | 0.0 | 0.00 | 0.00 | 0.00 | 69 | 1014.0 |
| 20260502002951 | 50 | 3 | 0.0 | 0.0 | 0.00 | 0.00 | 0.00 | 68 | 1013.9 |
| 20260502002449 | 50 | 8 | 0.0 | 0.0 | 0.00 | 0.00 | 0.00 | 69 | 1014.1 |
| 20260502001946 | 50 | 7 | 1.7 | 1.7 | 0.00 | 0.00 | 0.00 | 69 | 1013.5 |
| 20260502001443 | 51 | 359 | 0.9 | 0.9 | 0.00 | 0.00 | 0.00 | 69 | 1013.3 |
| 20260502000941 | 51 | 11 | 0.9 | 0.9 | 0.00 | 0.00 | 0.00 | 68 | 1013.2 |
| 20260502000440 | 51 | 8 | 1.7 | 1.7 | 0.00 | 0.00 | 0.00 | 68 | 1013.0 |
| 20260501235935 | 51 | 358 | 0.9 | 1.7 | 0.00 | 0.00 | 0.00 | 69 | 1013.0 |
| 20260501235431 | 51 | 2 | 0.0 | 0.0 | 0.00 | 0.00 | 0.00 | 70 | 1012.9 |
| 20260501234926 | 51 | 19 | 0.0 | 0.0 | 0.00 | 0.00 | 0.00 | 70 | 1012.5 |
| 20260501234423 | 51 | 11 | 0.0 | 0.0 | 0.00 | 0.00 | 0.00 | 68 | 1012.5 |
| 20260501233922 | 51 | 20 | 0.0 | 0.9 | 0.00 | 0.00 | 0.00 | 70 | 1012.9 |
| 20260501233419 | 51 | 61 | 1.7 | 1.7 | 0.00 | 0.00 | 0.00 | 70 | 1012.4 |
| 20260501232914 | 51 | 328 | 0.0 | 0.0 | 0.00 | 0.00 | 0.00 | 69 | 1012.3 |
| 20260501232412 | 52 | 343 | 2.6 | 2.6 | 0.00 | 0.00 | 0.00 | 69 | 1012.1 |
| 20260501231909 | 52 | 346 | 1.7 | 1.7 | 0.00 | 0.00 | 0.00 | 69 | 1012.3 |
| 20260501231408 | 53 | 15 | 0.0 | 0.9 | 0.00 | 0.00 | 0.00 | 67 | 1012.3 |
| 20260501230905 | 53 | 339 | 0.9 | 1.7 | 0.00 | 0.00 | 0.00 | 66 | 1012.4 |
| 20260501230404 | 53 | 16 | 0.0 | 0.0 | 0.00 | 0.00 | 0.00 | 65 | 1012.4 |
| 20260501225901 | 54 | 30 | 1.7 | 2.6 | 0.00 | 0.00 | 0.00 | 64 | 1012.3 |
| 20260501225359 | 54 | 354 | 0.9 | 0.9 | 0.00 | 0.00 | 0.00 | 64 | 1012.3 |
| 20260501224854 | 54 | 21 | 0.0 | 0.0 | 0.00 | 0.00 | 0.00 | 63 | 1012.1 |
| 20260501224352 | 55 | 22 | 0.9 | 0.9 | 0.00 | 0.00 | 0.00 | 62 | 1012.0 |
| 20260501223848 | 56 | 9 | 0.0 | 0.0 | 0.00 | 0.00 | 0.00 | 59 | 1011.8 |
| 20260501223344 | 57 | 345 | 0.0 | 0.0 | 0.00 | 0.00 | 0.00 | 55 | 1011.6 |
| 20260501222840 | 55 | 41 | 2.6 | 3.5 | 0.00 | 0.00 | 0.00 | 58 | 1011.9 |
| 20260501222338 | 56 | 323 | 1.7 | 2.6 | 0.00 | 0.00 | 0.00 | 57 | 1011.7 |
| 20260501221834 | 56 | 209 | 3.5 | 3.5 | 0.00 | 0.00 | 0.00 | 55 | 1011.8 |
| 20260501221332 | 56 | 8 | 0.0 | 0.0 | 0.00 | 0.00 | 0.00 | 56 | 1011.4 |
| 20260501220830 | 56 | 63 | 0.9 | 0.9 | 0.00 | 0.00 | 0.00 | 54 | 1011.6 |
| 20260501220327 | 56 | 6 | 2.6 | 3.5 | 0.00 | 0.00 | 0.00 | 53 | 1011.7 |
| 20260501215823 | 57 | 25 | 2.6 | 2.6 | 0.00 | 0.00 | 0.00 | 51 | 1011.6 |
| 20260501215319 | 57 | 340 | 0.9 | 0.9 | 0.00 | 0.00 | 0.00 | 50 | 1011.1 |
| 20260501214815 | 58 | 354 | 0.9 | 0.9 | 0.00 | 0.00 | 0.00 | 49 | 1011.1 |
| 20260501214310 | 58 | 336 | 0.9 | 1.7 | 0.00 | 0.00 | 0.00 | 46 | 1011.0 |
| 20260501213807 | 59 | 6 | 0.0 | 0.0 | 0.00 | 0.00 | 0.00 | 46 | 1010.7 |
| 20260501213303 | 60 | 9 | 0.9 | 0.9 | 0.00 | 0.00 | 0.00 | 46 | 1010.7 |
| 20260501212759 | 60 | 3 | 0.9 | 2.6 | 0.00 | 0.00 | 0.00 | 44 | 1010.8 |
| 20260501212255 | 60 | 304 | 2.6 | 2.6 | 0.00 | 0.00 | 0.00 | 42 | 1011.1 |
| 20260501211753 | 60 | 7 | 0.9 | 0.9 | 0.00 | 0.00 | 0.00 | 41 | 1010.8 |
| 20260501211250 | 60 | 353 | 0.9 | 0.9 | 0.00 | 0.00 | 0.00 | 41 | 1011.0 |
| 20260501210747 | 61 | 336 | 1.7 | 1.7 | 0.00 | 0.00 | 0.00 | 39 | 1010.8 |
| 20260501210243 | 62 | 24 | 1.7 | 1.7 | 0.00 | 0.00 | 0.00 | 36 | 1010.7 |
| 20260501205740 | 63 | 311 | 1.7 | 1.7 | 0.00 | 0.00 | 0.00 | 35 | 1010.6 |
| 20260501205237 | 64 | 328 | 4.3 | 6.1 | 0.00 | 0.00 | 0.00 | 34 | 1010.4 |
| 20260501204734 | 63 | 354 | 0.9 | 0.9 | 0.00 | 0.00 | 0.00 | 33 | 1010.5 |
| 20260501204231 | 62 | 345 | 2.6 | 2.6 | 0.00 | 0.00 | 0.00 | 35 | 1010.5 |
| 20260501203727 | 63 | 291 | 3.5 | 3.5 | 0.00 | 0.00 | 0.00 | 32 | 1010.5 |
| 20260501203224 | 64 | 216 | 7.0 | 9.6 | 0.00 | 0.00 | 0.00 | 30 | 1010.3 |
| 20260501202721 | 66 | 296 | 4.3 | 6.1 | 0.00 | 0.00 | 0.00 | 28 | 1010.1 |
| 20260501202218 | 67 | 18 | 3.5 | 3.5 | 0.00 | 0.00 | 0.00 | 28 | 1010.0 |
| 20260501201715 | 67 | 342 | 1.7 | 1.7 | 0.00 | 0.00 | 0.00 | 27 | 1010.1 |
| 20260501201212 | 67 | 315 | 0.9 | 0.9 | 0.00 | 0.00 | 0.00 | 27 | 1010.1 |
| 20260501200708 | 68 | 285 | 2.6 | 3.5 | 0.00 | 0.00 | 0.00 | 28 | 1010.0 |
| 20260501200206 | 67 | 24 | 0.9 | 0.9 | 0.00 | 0.00 | 0.00 | 32 | 1010.1 |
| 20260501195703 | 64 | 306 | 2.6 | 3.5 | 0.00 | 0.00 | 0.00 | 30 | 1010.5 |
| 20260501195159 | 63 | 4 | 1.7 | 1.7 | 0.00 | 0.00 | 0.00 | 27 | 1010.4 |
| 20260501194655 | 64 | 13 | 0.9 | 0.9 | 0.00 | 0.00 | 0.00 | 29 | 1010.4 |
| 20260501194150 | 66 | 319 | 0.9 | 0.9 | 0.00 | 0.00 | 0.00 | 30 | 1010.5 |
| 20260501193648 | 66 | 328 | 1.7 | 1.7 | 0.00 | 0.00 | 0.00 | 28 | 1010.4 |
| 20260501193146 | 67 | 282 | 1.7 | 2.6 | 0.00 | 0.00 | 0.00 | 28 | 1010.6 |
| 20260501192643 | 67 | 289 | 2.6 | 3.5 | 0.00 | 0.00 | 0.00 | 28 | 1010.6 |
| 20260501192140 | 66 | 295 | 2.6 | 3.5 | 0.00 | 0.00 | 0.00 | 28 | 1010.6 |
| 20260501191638 | 67 | 277 | 1.7 | 3.5 | 0.00 | 0.00 | 0.00 | 26 | 1010.8 |
| 20260501191135 | 67 | 57 | 2.6 | 3.5 | 0.00 | 0.00 | 0.00 | 26 | 1010.6 |
| 20260501190631 | 67 | 3 | 1.7 | 1.7 | 0.00 | 0.00 | 0.00 | 29 | 1010.8 |
| 20260501190126 | 68 | 159 | 3.5 | 3.5 | 0.00 | 0.00 | 0.00 | 26 | 1011.1 |
| 20260501185622 | 67 | 291 | 0.9 | 0.9 | 0.00 | 0.00 | 0.00 | 29 | 1010.5 |
| 20260501185118 | 66 | 277 | 3.5 | 3.5 | 0.00 | 0.00 | 0.00 | 27 | 1010.8 |
| 20260501184614 | 66 | 216 | 1.7 | 1.7 | 0.00 | 0.00 | 0.00 | 29 | 1010.6 |
| 20260501184109 | 66 | 323 | 0.9 | 1.7 | 0.00 | 0.00 | 0.00 | 24 | 1010.8 |
| 20260501183606 | 65 | 324 | 2.6 | 3.5 | 0.00 | 0.00 | 0.00 | 26 | 1010.6 |
| 20260501183103 | 65 | 270 | 4.3 | 6.1 | 0.00 | 0.00 | 0.00 | 25 | 1010.8 |
| 20260501182559 | 64 | 315 | 3.5 | 5.2 | 0.00 | 0.00 | 0.00 | 25 | 1010.7 |
| 20260501182056 | 64 | 339 | 1.7 | 2.6 | 0.00 | 0.00 | 0.00 | 28 | 1011.1 |
| 20260501181553 | 65 | 36 | 1.7 | 2.6 | 0.00 | 0.00 | 0.00 | 28 | 1011.0 |
| 20260501181050 | 64 | 316 | 4.3 | 5.2 | 0.00 | 0.00 | 0.00 | 25 | 1010.8 |
| 20260501180548 | 64 | 11 | 4.3 | 6.1 | 0.00 | 0.00 | 0.00 | 31 | 1011.0 |
| 20260501180044 | 64 | 268 | 4.3 | 6.1 | 0.00 | 0.00 | 0.00 | 25 | 1010.8 |
| 20260501175541 | 63 | 241 | 3.5 | 5.2 | 0.00 | 0.00 | 0.00 | 30 | 1011.3 |
| 20260501175038 | 63 | 171 | 5.2 | 6.1 | 0.00 | 0.00 | 0.00 | 28 | 1011.4 |
| 20260501174535 | 63 | 160 | 5.2 | 6.1 | 0.00 | 0.00 | 0.00 | 29 | 1011.3 |
| 20260501174033 | 63 | 95 | 3.5 | 3.5 | 0.00 | 0.00 | 0.00 | 28 | 1011.5 |
| 20260501173530 | 64 | 267 | 6.1 | 7.8 | 0.00 | 0.00 | 0.00 | 27 | 1011.5 |
| 20260501173026 | 64 | 221 | 1.7 | 1.7 | 0.00 | 0.00 | 0.00 | 29 | 1011.3 |
| 20260501172522 | 63 | 268 | 2.6 | 2.6 | 0.00 | 0.00 | 0.00 | 33 | 1011.5 |
| 20260501172018 | 61 | 149 | 3.5 | 3.5 | 0.00 | 0.00 | 0.00 | 27 | 1011.5 |
| 20260501171514 | 61 | 287 | 3.5 | 3.5 | 0.00 | 0.00 | 0.00 | 28 | 1011.6 |
| 20260501171011 | 60 | 334 | 1.7 | 2.6 | 0.00 | 0.00 | 0.00 | 26 | 1011.8 |
| 20260501170507 | 61 | 180 | 4.3 | 7.0 | 0.00 | 0.00 | 0.00 | 22 | 1011.8 |
| 20260501170005 | 63 | 315 | 2.6 | 3.5 | 0.00 | 0.00 | 0.00 | 23 | 1011.8 |
| 20260501165502 | 63 | 4 | 0.9 | 0.9 | 0.00 | 0.00 | 0.00 | 23 | 1011.9 |
| 20260501165000 | 63 | 347 | 1.7 | 1.7 | 0.00 | 0.00 | 0.00 | 22 | 1011.9 |
| 20260501164458 | 62 | 314 | 4.3 | 6.1 | 0.00 | 0.00 | 0.00 | 25 | 1011.8 |
| 20260501163954 | 61 | 324 | 3.5 | 6.1 | 0.00 | 0.00 | 0.00 | 28 | 1011.9 |
| 20260501163450 | 62 | 310 | 5.2 | 6.1 | 0.00 | 0.00 | 0.00 | 27 | 1012.0 |
| 20260501162947 | 62 | 348 | 2.6 | 2.6 | 0.00 | 0.00 | 0.00 | 28 | 1012.0 |
| 20260501162443 | 61 | 68 | 1.7 | 2.6 | 0.00 | 0.00 | 0.00 | 31 | 1012.1 |
| 20260501161941 | 60 | 338 | 0.9 | 0.9 | 0.00 | 0.00 | 0.00 | 34 | 1012.2 |
| 20260501161437 | 60 | 200 | 1.7 | 2.6 | 0.00 | 0.00 | 0.00 | 38 | 1012.4 |
| 20260501160934 | 59 | 223 | 2.6 | 3.5 | 0.00 | 0.00 | 0.00 | 35 | 1012.3 |
| 20260501160431 | 59 | 307 | 2.6 | 2.6 | 0.00 | 0.00 | 0.00 | 39 | 1012.5 |
| 20260501155928 | 59 | 142 | 3.5 | 5.2 | 0.00 | 0.00 | 0.00 | 35 | 1012.6 |
| 20260501155425 | 58 | 46 | 1.7 | 1.7 | 0.00 | 0.00 | 0.00 | 36 | 1012.9 |
| 20260501154922 | 57 | 41 | 1.7 | 2.6 | 0.00 | 0.00 | 0.00 | 35 | 1012.9 |